Regional Weather Roundup
Issued by NWS

Home | Current Version | Previous Version | Graphics & Text | Print | Product List | Glossary Off
Versions: 1 2 3 4 5 6 7 8 9 10 11 12 13 14 15 16 17 18 19 20 21 22 23 24 25 26 27 28 29 30 31 32 33 34 35 36 37 38 39 40 41 42 43 44 45 46 47 48 49 50

000
ASUS43 KTOP 240659
RWRKS

WEATHER ROUNDUP FOR KANSAS
NATIONAL WEATHER SERVICE GOODLAND KS
200 AM CDT SAT JUN 24 2017

NOTE:  "FAIR" INDICATES FEW OR NO CLOUDS BELOW 12,000 FEET WITH NO
SIGNIFICANT WEATHER AND/OR OBSTRUCTIONS TO VISIBILITY.

KSZ001>006-013>018-027>032-041>047-240800-
NORTHWEST KANSAS

CITY           SKY/WX    TMP DP  RH WIND       PRES   REMARKS
GOODLAND       CLEAR     55  51  86 W6        30.26R
HAYS           CLEAR     59  51  75 NE8       30.20S
HILL CITY      PTCLDY    57  49  74 CALM      30.23R
RUSSELL        CLEAR     61  49  64 NE6       30.18S
$$

KSZ061>065-074>080-084>089-240800-
SOUTHWEST KANSAS

CITY           SKY/WX    TMP DP  RH WIND       PRES   REMARKS
DODGE CITY     PTCLDY    62  54  74 NW8       30.20F
ELKHART          N/A     63  44  50 NE2         N/A
GARDEN CITY    CLOUDY    61  52  72 SW3       30.23S
GREAT BEND     CLEAR     59  55  87 CALM      30.19S
LIBERAL        CLOUDY    63  55  75 NW5       30.23F
$$

KSZ066>073-081>083-090>101-240800-
SOUTHEAST KANSAS

CITY           SKY/WX    TMP DP  RH WIND       PRES   REMARKS
CHANUTE        CLEAR     64  55  72 N3        30.12R
COFFEYVILLE    CLOUDY    66  55  67 NE8       30.09R
HUTCHINSON     CLEAR     62  51  67 N6        30.16R
MEDICINE LODGE   N/A     65  57  75 N6        30.14F
NEWTON         CLEAR     63  51  65 NE8       30.16R
PARSONS        CLEAR     68  54  60 N5        30.11R
WICHITA INTL   MOCLDY    70  53  54 N6        30.14R
WICHITA JABRA  PTCLDY    66  55  67 N5        30.14R
WINFIELD       CLOUDY    69  59  70 N6        30.13R
$$

KSZ007>012-019>026-033>040-048>060-102>105-240800-
NORTHEAST KANSAS

CITY           SKY/WX    TMP DP  RH WIND       PRES   REMARKS
CONCORDIA      PTCLDY    61  51  70 CALM      30.16S
EMPORIA        CLEAR     60  57  89 NW3       30.14R
LAWRENCE       CLEAR     59  57  93 W5        30.12R
MANHATTAN      CLEAR     57  51  80 CALM      30.14S
OLATHE IND     CLEAR     63  54  72 NW7       30.11S
OLATHE EXE     CLEAR     64  54  69 NW6       30.10S
SALINA         CLEAR     64  51  62 NW5       30.17R
TOPEKA BILLARD CLEAR     61  58  90 CALM      30.12S
TOPEKA FORBES  CLEAR     61  56  83 NW7       30.13R
$$




USA.gov is the U.S. government's official web portal to all federal, state and local government web resources and services.